Location: Observatoire
(46.1952°N, 5.3391°E)
Time: 17:05:24
(UTC+01:00)

Injun/Solrad 3 - Pass Details

Date: 18 February 2026
Orbit: 872 x 984 km, 66.8° (Epoch: 8 March)

Event Time Altitude Azimuth Distance (km) Brightness Sun altitude
Rises 19:15:06 0° 329° (NNW) 3,557 11.3 -12.1°
Reaches altitude 10° 19:17:49 10° 338° (NNW) 2,630 10.5 -12.6°
Maximum altitude 19:23:26 36° 45° (NE) 1,445 8.6 -13.5°
Enters shadow 19:27:15 19° 100° (E) 2,093 9.1 -14.2°
